Regional Weather Roundup
Issued by NWS

Home | Current Version | Previous Version | Text Only | Print | Product List | Glossary Off
Versions: 1 2 3 4 5 6 7 8 9 10 11 12 13 14 15 16 17 18 19 20 21 22 23 24 25 26 27 28 29 30 31 32 33 34 35 36 37 38 39 40 41 42 43 44 45 46 47 48 49 50

000
ASUS43 KBIS 052201
RWRND

NORTH DAKOTA REGIONAL WEATHER ROUNDUP
NATIONAL WEATHER SERVICE BISMARCK ND
400 PM CST THU MAR 05 2015

NOTE: "FAIR" INDICATES FEW OR NO CLOUDS BELOW 12,000 FEET WITH NO
SIGNIFICANT WEATHER AND/OR OBSTRUCTIONS TO VISIBILITY.


NDZ001>003-009>011-017-052300-
NORTHWEST NORTH DAKOTA

CITY           SKY/WX    TMP DP  RH WIND       PRES   REMARKS
WILLISTON      SUNNY     39  15  37 W14       30.02S
MINOT          SUNNY     28  11  48 SW14      30.00F WCI  17
MINOT AFB      SUNNY     28  17  65 W9        30.00F WCI  19
$$

NDZ018>021-031>035-040>046-052300-
SOUTHWEST NORTH DAKOTA

CITY           SKY/WX    TMP DP  RH WIND       PRES   REMARKS
BISMARCK       SUNNY     40  11  30 W7        30.04F
DICKINSON      SUNNY     42   9  25 W18G26    30.01R
GARRISON         N/A     30  15  53 W8        30.02F
HETTINGER ARPT SUNNY     44  10  25 NW21G29   30.04R
$$

NDZ004>008-012>016-024-026-027-054-052300-
NORTHEAST NORTH DAKOTA

CITY           SKY/WX    TMP DP  RH WIND       PRES   REMARKS
GRAND FORKS    SUNNY     24  12  60 S24G31    30.14F WCI   8
GRND FRKS AFB  SUNNY     27   8  45 SW17      30.12F WCI  14
DEVILS LAKE    SUNNY     25  12  58 SW13      30.05F WCI  13
$$

NDZ022-023-025-028>030-036>039-047>053-052300-
SOUTHEAST NORTH DAKOTA

CITY           SKY/WX    TMP DP  RH WIND       PRES   REMARKS
FARGO          SUNNY     25   7  46 S21G28    30.21F WCI  11
JAMESTOWN      SUNNY     27  13  55 S20       30.09F WCI  13
$$



USA.gov is the U.S. government's official web portal to all federal, state and local government web resources and services.